Location: Caltech
(34.1382°N, 118.1253°W)
Time: 13:35:12
(UTC-07:00)

NOAA 19 - Visible Passes

Search period start: 25 July 2014 00:00
Search period end: 04 August 2014 00:00
Orbit: 843 x 864 km, 98.9° (Epoch: 25 July)

Date Brightness Start Highest point End Pass type
(mag) Time Alt. Az. Time Alt. Az. Time Alt. Az.
25 Jul 5.2 02:57:55 10° NNE 03:03:27 79° E 03:03:27 79° E visible
25 Jul 7.2 04:41:23 10° NW 04:43:28 12° WNW 04:45:30 10° W visible
26 Jul 5.5 02:46:57 10° NNE 02:52:13 61° E 02:52:13 61° E visible
26 Jul 7.0 04:29:26 10° NNW 04:32:35 16° WNW 04:34:16 14° W visible
27 Jul 5.9 02:36:02 10° NNE 02:40:59 47° E 02:40:59 47° E visible
27 Jul 6.7 04:17:49 10° NNW 04:21:41 20° WNW 04:23:02 18° W visible
28 Jul 6.3 02:25:12 10° NNE 02:29:44 37° E 02:29:44 37° E visible
28 Jul 6.4 04:06:23 10° NNW 04:10:46 25° WNW 04:11:48 24° W visible
29 Jul 6.7 02:14:26 10° NE 02:18:30 29° E 02:18:30 29° E visible
29 Jul 6.1 03:55:02 10° N 03:59:50 31° WNW 04:00:33 30° W visible
30 Jul 7.1 02:03:47 10° NE 02:07:16 22° E 02:07:16 22° E visible
30 Jul 5.8 03:43:47 10° N 03:48:53 39° WNW 03:49:19 39° W visible
31 Jul 7.4 01:53:18 10° NE 01:56:01 17° E 01:56:01 17° E visible
31 Jul 5.5 03:32:35 10° N 03:37:55 50° WNW 03:38:04 50° WNW visible
01 Aug 7.6 01:43:07 10° ENE 01:44:46 13° E 01:44:46 13° E visible
01 Aug 5.3 03:21:26 10° N 03:26:50 64° WNW 03:26:50 64° WNW visible
02 Aug 5.2 03:10:21 10° N 03:15:35 77° NNW 03:15:35 77° NNW visible
03 Aug 5.4 02:59:19 10° NNE 03:04:20 71° NE 03:04:20 71° NE visible
03 Aug 7.2 04:42:53 10° NW 04:44:52 12° WNW 04:46:23 11° WNW visible
